Volver al catálogo

STARLINK-37522

ActivoComunicacionesVLEO
NORAD 69446·PAYLOAD·🇺🇸 United States

Lanzado Jun 8, 2026 desde Cape Canaveral Space Force Station

Loading…

Próximos Pases (próximas 24 horas)

TLE

ActualizadoSource: CelesTrak SupGP

Época: Sep 15, 2026, 03:21 UTC

1 69446C 26127D   26258.14006944 -.00047185  00000+0 -13940-2 0  2581
2 69446  53.1570 190.7647 0001315  82.2750 127.5211 15.34415288    11

Sigue STARLINK-37522 en tiempo real con AllMySat

Download on the App Store